Year,Month,Day,Hour,Minute,Value (Times are PST for temperature in C)
2008,07,23,00,00,17.00
2008,07,23,00,01,17.00
2008,07,23,00,02,17.00
2008,07,23,00,03,17.00
2008,07,23,00,04,17.00
2008,07,23,00,05,17.00
2008,07,23,00,06,17.00
2008,07,23,00,07,17.00
2008,07,23,00,08,17.00
2008,07,23,00,09,17.00
2008,07,23,00,10,16.90
2008,07,23,00,11,16.90
2008,07,23,00,12,16.90
2008,07,23,00,13,16.90
2008,07,23,01,02,16.60
2008,07,23,01,03,16.60
2008,07,23,01,04,16.60
2008,07,23,01,05,16.60
2008,07,23,01,06,16.60
2008,07,23,01,07,16.60
2008,07,23,01,08,16.60
2008,07,23,01,09,16.60
2008,07,23,01,10,16.60
2008,07,23,01,11,16.60
2008,07,23,01,12,16.60
2008,07,23,01,13,16.60
2008,07,23,01,14,16.60
2008,07,23,01,15,16.60
2008,07,23,01,16,16.60
2008,07,23,01,17,16.70
2008,07,23,01,18,16.70
2008,07,23,01,19,16.70
2008,07,23,01,20,16.70
2008,07,23,01,21,16.70
2008,07,23,01,22,16.70
2008,07,23,01,23,16.70
2008,07,23,01,24,16.70
2008,07,23,01,25,16.70
2008,07,23,01,26,16.70
2008,07,23,01,27,16.70
2008,07,23,01,28,16.70
2008,07,23,01,29,16.70
2008,07,23,01,30,16.70
2008,07,23,01,31,16.70
2008,07,23,01,32,16.70
2008,07,23,01,33,16.70
2008,07,23,01,34,16.70
2008,07,23,01,35,16.70
2008,07,23,01,36,16.70
2008,07,23,01,37,16.70
2008,07,23,01,38,16.70
2008,07,23,01,39,16.70
2008,07,23,01,40,16.70
2008,07,23,01,41,16.70
2008,07,23,01,42,16.70
2008,07,23,01,43,16.70
2008,07,23,01,44,16.70
2008,07,23,01,45,16.70
2008,07,23,01,46,16.70
2008,07,23,01,47,16.70
2008,07,23,01,48,16.70
2008,07,23,01,49,16.70
2008,07,23,01,50,16.70
2008,07,23,01,51,16.60
2008,07,23,01,52,16.60
2008,07,23,01,53,16.50
2008,07,23,01,54,16.40
2008,07,23,01,55,16.40
2008,07,23,01,56,16.40
2008,07,23,01,57,16.30
2008,07,23,01,58,16.30
2008,07,23,01,59,16.20
2008,07,23,02,00,16.20
2008,07,23,02,01,16.10
2008,07,23,02,02,16.10
2008,07,23,02,03,16.10
2008,07,23,02,04,16.10
2008,07,23,02,05,16.00
2008,07,23,02,06,15.90
2008,07,23,02,07,15.90
2008,07,23,02,08,15.80
2008,07,23,02,09,15.80
2008,07,23,02,10,15.80
2008,07,23,02,11,15.80
2008,07,23,02,12,15.80
2008,07,23,02,13,15.80
2008,07,23,02,14,15.80
2008,07,23,02,15,15.70
2008,07,23,02,16,15.70
2008,07,23,02,17,15.70
2008,07,23,02,18,15.60
2008,07,23,02,19,15.60
2008,07,23,02,20,15.60
2008,07,23,02,21,15.60
2008,07,23,02,22,15.50
2008,07,23,02,23,15.50
2008,07,23,02,24,15.50
2008,07,23,02,25,15.40
2008,07,23,02,26,15.40
2008,07,23,02,27,15.40
2008,07,23,02,28,15.40
2008,07,23,02,29,15.30
2008,07,23,02,30,15.30
2008,07,23,02,31,15.30
2008,07,23,02,32,15.30
2008,07,23,02,33,15.30
2008,07,23,02,34,15.30
2008,07,23,02,35,15.30
2008,07,23,02,36,15.30
2008,07,23,02,37,15.30
2008,07,23,02,38,15.30
2008,07,23,02,39,15.30
2008,07,23,02,40,15.30
2008,07,23,02,41,15.30
2008,07,23,02,42,15.30
2008,07,23,02,43,15.30
2008,07,23,02,44,15.30
2008,07,23,02,45,15.30
2008,07,23,02,46,15.30
2008,07,23,02,47,15.20
2008,07,23,02,48,15.20
2008,07,23,02,49,15.20
2008,07,23,02,50,15.20
2008,07,23,02,51,15.20
2008,07,23,02,52,15.20
2008,07,23,02,53,15.20
2008,07,23,02,54,15.20
2008,07,23,02,55,15.20
2008,07,23,02,56,15.20
2008,07,23,02,57,15.20
2008,07,23,02,58,15.20
2008,07,23,02,59,15.20
2008,07,23,03,00,15.20
2008,07,23,03,01,15.30
2008,07,23,03,02,15.30
2008,07,23,03,03,15.30
2008,07,23,03,04,15.30
2008,07,23,03,05,15.30
2008,07,23,03,06,15.30
2008,07,23,03,07,15.30
2008,07,23,03,08,15.30
2008,07,23,03,09,15.30
2008,07,23,03,10,15.30
2008,07,23,03,11,15.30
2008,07,23,03,12,15.30
2008,07,23,03,13,15.30
2008,07,23,03,14,15.30
2008,07,23,03,15,15.30
2008,07,23,03,16,15.30
2008,07,23,03,17,15.30
2008,07,23,03,18,15.30
2008,07,23,03,19,15.30
2008,07,23,03,20,15.30
2008,07,23,03,21,15.30
2008,07,23,03,22,15.30
2008,07,23,03,23,15.30
2008,07,23,03,24,15.30
2008,07,23,03,25,15.20
2008,07,23,03,26,15.20
2008,07,23,03,27,15.20
2008,07,23,03,28,15.20
2008,07,23,03,29,15.20
2008,07,23,03,30,15.20
2008,07,23,03,31,15.20
2008,07,23,03,32,15.20
2008,07,23,03,33,15.20
2008,07,23,03,34,15.20
2008,07,23,03,35,15.20
2008,07,23,03,36,15.20
2008,07,23,03,37,15.20
2008,07,23,03,38,15.20
2008,07,23,03,39,15.20
2008,07,23,03,40,15.20
2008,07,23,03,41,15.20
2008,07,23,03,42,15.20
2008,07,23,03,43,15.20
2008,07,23,03,44,15.20
2008,07,23,03,45,15.20
2008,07,23,03,46,15.20
2008,07,23,03,47,15.20
2008,07,23,03,48,15.20
2008,07,23,03,49,15.20
2008,07,23,03,50,15.30
2008,07,23,03,51,15.30
2008,07,23,03,52,15.30
2008,07,23,03,53,15.20
2008,07,23,03,54,15.20
2008,07,23,03,55,15.20
2008,07,23,03,56,15.20
2008,07,23,03,57,15.20
2008,07,23,03,58,15.20
2008,07,23,03,59,15.20
2008,07,23,04,00,15.20
2008,07,23,04,01,15.20
2008,07,23,04,02,15.20
2008,07,23,04,03,15.20
2008,07,23,04,04,15.20
2008,07,23,04,05,15.20
2008,07,23,04,06,15.20
2008,07,23,04,07,15.20
2008,07,23,04,08,15.20
2008,07,23,04,09,15.20
2008,07,23,04,10,15.20
2008,07,23,04,11,15.20
2008,07,23,04,12,15.30
2008,07,23,04,13,15.30
2008,07,23,04,14,15.30
2008,07,23,04,15,15.30
2008,07,23,04,16,15.30
2008,07,23,04,17,15.30
2008,07,23,04,18,15.30
2008,07,23,04,19,15.30
2008,07,23,04,20,15.30
2008,07,23,04,21,15.30
2008,07,23,04,22,15.30
2008,07,23,04,23,15.30
2008,07,23,04,24,15.30
2008,07,23,04,25,15.30
2008,07,23,04,26,15.30
2008,07,23,04,27,15.30
2008,07,23,04,28,15.30
2008,07,23,04,29,15.30
2008,07,23,04,30,15.30
2008,07,23,04,31,15.30
2008,07,23,04,32,15.30
2008,07,23,04,33,15.30
2008,07,23,04,34,15.30
2008,07,23,04,35,15.30
2008,07,23,04,36,15.30
2008,07,23,04,37,15.30
2008,07,23,04,38,15.20
2008,07,23,04,39,15.20
2008,07,23,04,40,15.20
2008,07,23,04,41,15.20
2008,07,23,04,42,15.20
2008,07,23,04,43,15.20
2008,07,23,04,44,15.10
2008,07,23,04,45,15.10
2008,07,23,04,46,15.10
2008,07,23,04,47,15.10
2008,07,23,04,48,15.10
2008,07,23,04,49,15.10
2008,07,23,04,50,15.10
2008,07,23,04,51,15.10
2008,07,23,04,52,15.00
2008,07,23,04,53,15.00
2008,07,23,04,54,15.00
2008,07,23,04,55,15.00
2008,07,23,04,56,15.00
2008,07,23,04,57,15.00
2008,07,23,04,58,15.00
2008,07,23,04,59,15.00
2008,07,23,05,00,14.90
2008,07,23,05,01,14.90
2008,07,23,05,02,14.90
2008,07,23,05,03,14.90
2008,07,23,05,04,14.90
2008,07,23,05,05,14.90
2008,07,23,05,06,14.90
2008,07,23,05,07,14.90
2008,07,23,05,08,14.80
2008,07,23,05,09,14.80
2008,07,23,05,10,14.80
2008,07,23,05,11,14.80
2008,07,23,05,12,14.80
2008,07,23,05,13,14.80
2008,07,23,05,14,14.80
2008,07,23,05,15,14.80
2008,07,23,05,16,14.80
2008,07,23,05,17,14.80
2008,07,23,05,18,14.70
2008,07,23,05,19,14.70
2008,07,23,05,20,14.70
2008,07,23,05,21,14.70
2008,07,23,05,22,14.60
2008,07,23,05,23,14.60
2008,07,23,05,24,14.60
2008,07,23,05,25,14.60
2008,07,23,05,26,14.60
2008,07,23,05,27,14.60
2008,07,23,05,28,14.60
2008,07,23,05,29,14.60
2008,07,23,05,30,14.50
2008,07,23,05,31,14.50
2008,07,23,05,32,14.50
2008,07,23,05,33,14.50
2008,07,23,05,34,14.50
2008,07,23,05,35,14.50
2008,07,23,05,36,14.50
2008,07,23,05,37,14.50
2008,07,23,05,38,14.50
2008,07,23,05,39,14.50
2008,07,23,05,40,14.50
2008,07,23,05,41,14.50
2008,07,23,05,42,14.50
2008,07,23,05,43,14.50
2008,07,23,05,44,14.50
2008,07,23,05,45,14.50
2008,07,23,05,46,14.40
2008,07,23,05,47,14.40
2008,07,23,05,48,14.40
2008,07,23,05,49,14.40
2008,07,23,05,50,14.40
2008,07,23,05,51,14.40
2008,07,23,05,52,14.40
2008,07,23,05,53,14.40
2008,07,23,05,54,14.40
2008,07,23,05,55,14.40
2008,07,23,05,56,14.40
2008,07,23,05,57,14.40
2008,07,23,05,58,14.40
2008,07,23,05,59,14.40
2008,07,23,06,00,14.40
2008,07,23,06,01,14.40
2008,07,23,06,02,14.40
2008,07,23,06,03,14.40
2008,07,23,06,04,14.40
2008,07,23,06,05,14.50
2008,07,23,06,06,14.50
2008,07,23,06,07,14.50
2008,07,23,06,08,14.50
2008,07,23,06,09,14.50
2008,07,23,06,10,14.50
2008,07,23,06,11,14.60
2008,07,23,06,12,14.60
2008,07,23,06,13,14.60
2008,07,23,06,14,14.60
2008,07,23,06,15,14.60
2008,07,23,06,16,14.60
2008,07,23,06,17,14.60
2008,07,23,06,18,14.60
2008,07,23,06,19,14.70
2008,07,23,06,20,14.70
2008,07,23,06,21,14.70
2008,07,23,06,22,14.70
2008,07,23,06,23,14.70
2008,07,23,06,24,14.80
2008,07,23,06,25,14.80
2008,07,23,06,26,14.80
2008,07,23,06,27,14.80
2008,07,23,06,28,14.80
2008,07,23,06,29,14.80
2008,07,23,06,30,14.80
2008,07,23,06,31,14.80
2008,07,23,06,32,14.80
2008,07,23,06,33,14.80
2008,07,23,06,34,14.80
2008,07,23,06,35,14.80
2008,07,23,06,36,14.80
2008,07,23,06,37,14.90
2008,07,23,06,38,14.90
2008,07,23,06,39,14.90
2008,07,23,06,40,14.90
2008,07,23,06,41,14.90
2008,07,23,06,42,15.00
2008,07,23,06,43,15.00
2008,07,23,06,44,15.00
2008,07,23,06,45,15.00
2008,07,23,06,46,15.10
2008,07,23,06,47,15.10
2008,07,23,06,48,15.10
2008,07,23,06,49,15.10
2008,07,23,06,50,15.10
2008,07,23,06,51,15.10
2008,07,23,06,52,15.10
2008,07,23,06,53,15.20
2008,07,23,06,54,15.20
2008,07,23,06,55,15.20
2008,07,23,06,56,15.20
2008,07,23,06,57,15.20
2008,07,23,06,58,15.20
2008,07,23,06,59,15.30
2008,07,23,07,00,15.30
2008,07,23,07,01,15.30
2008,07,23,07,02,15.30
2008,07,23,07,03,15.30
2008,07,23,07,04,15.30
2008,07,23,07,05,15.30
2008,07,23,07,06,15.30
2008,07,23,07,07,15.30
2008,07,23,07,08,15.40
2008,07,23,07,09,15.40
2008,07,23,07,10,15.40
2008,07,23,07,11,15.50
2008,07,23,07,12,15.50
2008,07,23,07,13,15.50
2008,07,23,07,14,15.60
2008,07,23,07,15,15.60
2008,07,23,07,16,15.60
2008,07,23,07,17,15.60
2008,07,23,07,18,15.70
2008,07,23,07,19,15.70
2008,07,23,07,20,15.70
2008,07,23,07,21,15.80
2008,07,23,07,22,15.80
2008,07,23,07,23,15.80
2008,07,23,07,24,15.80
2008,07,23,07,25,15.80
2008,07,23,07,26,15.80
2008,07,23,07,27,15.80
2008,07,23,07,28,15.90
2008,07,23,07,29,15.90
2008,07,23,07,30,15.90
2008,07,23,07,31,15.80
2008,07,23,07,32,15.80
2008,07,23,07,33,15.80
2008,07,23,07,34,15.80
2008,07,23,07,35,15.90
2008,07,23,07,36,15.90
2008,07,23,07,37,15.90
2008,07,23,07,38,15.90
2008,07,23,07,39,15.90
2008,07,23,07,40,15.90
2008,07,23,07,41,15.90
2008,07,23,07,42,15.80
2008,07,23,07,43,15.80
2008,07,23,07,44,15.80
2008,07,23,07,45,15.80
2008,07,23,07,46,15.80
2008,07,23,07,47,15.80
2008,07,23,07,48,15.80
2008,07,23,07,49,15.80
2008,07,23,07,50,15.80
2008,07,23,07,51,15.80
2008,07,23,07,52,15.80
2008,07,23,07,53,15.80
2008,07,23,07,54,15.80
2008,07,23,07,55,15.80
2008,07,23,07,56,15.80
2008,07,23,07,57,15.80
2008,07,23,07,58,15.80
2008,07,23,07,59,15.80
2008,07,23,08,00,15.80
2008,07,23,08,01,15.80
2008,07,23,08,02,15.80
2008,07,23,08,03,15.80
2008,07,23,08,04,15.80
2008,07,23,08,05,15.80
2008,07,23,08,06,15.80
2008,07,23,08,07,15.80
2008,07,23,08,08,15.80
2008,07,23,08,09,15.70
2008,07,23,08,10,15.70
2008,07,23,08,11,15.70
2008,07,23,08,12,15.70
2008,07,23,08,13,15.70
2008,07,23,08,14,15.70
2008,07,23,08,15,15.70
2008,07,23,08,16,15.70
2008,07,23,08,17,15.70
2008,07,23,08,18,15.70
2008,07,23,08,19,15.70
2008,07,23,08,20,15.70
2008,07,23,08,21,15.70
2008,07,23,08,22,15.70
2008,07,23,08,23,15.80
2008,07,23,08,24,15.80
2008,07,23,08,25,15.80
2008,07,23,08,26,15.80
2008,07,23,08,27,15.80
2008,07,23,08,28,15.80
2008,07,23,08,29,15.90
2008,07,23,08,30,15.90
2008,07,23,08,31,16.00
2008,07,23,08,32,16.10
2008,07,23,08,33,16.10
2008,07,23,08,34,16.10
2008,07,23,08,35,16.10
2008,07,23,08,36,16.10
2008,07,23,08,37,16.10
2008,07,23,08,38,16.10
2008,07,23,08,39,16.10
2008,07,23,08,40,16.10
2008,07,23,08,41,16.20
2008,07,23,08,42,16.20
2008,07,23,08,43,16.30
2008,07,23,08,44,16.30
2008,07,23,08,45,16.30
2008,07,23,08,46,16.30
2008,07,23,08,47,16.30
2008,07,23,08,48,16.30
2008,07,23,08,49,16.40
2008,07,23,08,50,16.30
2008,07,23,08,51,16.20
2008,07,23,08,52,16.20
2008,07,23,08,53,16.10
2008,07,23,08,54,16.10
2008,07,23,08,55,16.10
2008,07,23,08,56,16.10
2008,07,23,08,57,16.10
2008,07,23,08,58,16.20
2008,07,23,08,59,16.20
2008,07,23,09,00,16.20
2008,07,23,09,01,16.20
2008,07,23,09,02,16.20
2008,07,23,09,03,16.20
2008,07,23,09,04,16.20
2008,07,23,09,05,16.10
2008,07,23,09,06,16.10
2008,07,23,09,07,16.00
2008,07,23,09,08,15.90
2008,07,23,09,09,15.90
2008,07,23,09,10,15.80
2008,07,23,09,11,15.80
2008,07,23,09,12,15.80
2008,07,23,09,13,15.80
2008,07,23,09,14,15.80
2008,07,23,09,15,15.70
2008,07,23,09,16,15.70
2008,07,23,09,17,15.60
2008,07,23,09,18,15.60
2008,07,23,09,19,15.60
2008,07,23,09,20,15.50
2008,07,23,09,21,15.50
2008,07,23,09,22,15.40
2008,07,23,09,23,15.40
2008,07,23,09,24,15.30
2008,07,23,09,25,15.30
2008,07,23,09,26,15.30
2008,07,23,09,27,15.30
2008,07,23,09,28,15.30
2008,07,23,09,29,15.40
2008,07,23,09,30,15.40
2008,07,23,09,31,15.40
2008,07,23,09,32,15.40
2008,07,23,09,33,15.40
2008,07,23,09,34,15.40
2008,07,23,09,35,15.40
2008,07,23,09,36,15.40
2008,07,23,09,37,15.40
2008,07,23,09,38,15.40
2008,07,23,09,39,15.40
2008,07,23,09,40,15.40
2008,07,23,09,41,15.40
2008,07,23,09,42,15.40
2008,07,23,09,43,15.40
2008,07,23,09,44,15.40
2008,07,23,09,45,15.40
2008,07,23,09,46,15.40
2008,07,23,09,47,15.40
2008,07,23,09,48,15.50
2008,07,23,09,49,15.50
2008,07,23,09,50,15.50
2008,07,23,09,51,15.50
2008,07,23,09,52,15.60
2008,07,23,09,53,15.60
2008,07,23,09,54,15.70
2008,07,23,09,55,15.80
2008,07,23,09,56,15.80
2008,07,23,09,57,15.90
2008,07,23,09,58,15.90
2008,07,23,09,59,16.00
2008,07,23,10,00,16.10
2008,07,23,10,01,16.10
2008,07,23,10,02,16.10
2008,07,23,10,03,16.10
2008,07,23,10,04,16.10
2008,07,23,10,05,16.10
2008,07,23,10,06,16.10
2008,07,23,10,07,16.10
2008,07,23,10,08,16.10
2008,07,23,10,09,16.10
2008,07,23,10,10,16.10
2008,07,23,10,11,16.10
2008,07,23,10,12,16.10
2008,07,23,10,13,16.00
2008,07,23,10,14,15.90
2008,07,23,10,15,15.90
2008,07,23,10,16,15.90
2008,07,23,10,17,15.90
2008,07,23,10,18,15.90
2008,07,23,10,19,16.00
2008,07,23,10,20,16.10
2008,07,23,10,21,16.10
2008,07,23,10,22,16.10
2008,07,23,10,23,16.10
2008,07,23,10,24,16.10
2008,07,23,10,25,16.10
2008,07,23,10,26,16.10
2008,07,23,10,27,16.10
2008,07,23,10,28,16.10
2008,07,23,10,29,16.10
2008,07,23,10,30,16.10
2008,07,23,10,31,16.10
2008,07,23,10,32,16.10
2008,07,23,10,33,16.10
2008,07,23,10,34,16.10
2008,07,23,10,35,16.10
2008,07,23,10,36,16.10
2008,07,23,10,37,16.20
2008,07,23,10,38,16.20
2008,07,23,10,39,16.10
2008,07,23,10,40,16.10
2008,07,23,10,41,16.10
2008,07,23,10,42,16.10
2008,07,23,10,43,16.10
2008,07,23,10,44,16.20
2008,07,23,10,45,16.20
2008,07,23,10,46,16.30
2008,07,23,10,47,16.40
2008,07,23,10,48,16.40
2008,07,23,10,49,16.50
2008,07,23,10,50,16.60
2008,07,23,10,51,16.70
2008,07,23,10,52,16.70
2008,07,23,10,53,16.60
2008,07,23,10,54,16.60
2008,07,23,10,55,16.60
2008,07,23,10,56,16.60
2008,07,23,10,57,16.50
2008,07,23,10,58,16.50
2008,07,23,10,59,16.40
2008,07,23,11,00,16.40
2008,07,23,11,01,16.40
2008,07,23,11,02,16.50
2008,07,23,11,03,16.60
2008,07,23,11,04,16.60
2008,07,23,11,05,16.60
2008,07,23,11,06,16.60
2008,07,23,11,07,16.60
2008,07,23,11,08,16.60
2008,07,23,11,09,16.60
2008,07,23,11,10,16.60
2008,07,23,11,11,16.60
2008,07,23,11,12,16.50
2008,07,23,11,13,16.40
2008,07,23,11,14,16.50
2008,07,23,11,15,16.60
2008,07,23,11,16,16.70
2008,07,23,11,17,16.70
2008,07,23,11,18,16.70
2008,07,23,11,19,16.70
2008,07,23,11,20,16.80
2008,07,23,11,21,16.90
2008,07,23,11,22,17.00
2008,07,23,11,23,17.10
2008,07,23,11,24,17.30
2008,07,23,11,25,17.40
2008,07,23,11,26,17.50
2008,07,23,11,27,17.70
2008,07,23,11,28,17.80
2008,07,23,11,29,17.90
2008,07,23,11,30,17.90
2008,07,23,11,31,17.90
2008,07,23,11,32,17.90
2008,07,23,11,33,17.90
2008,07,23,11,34,17.80
2008,07,23,11,35,17.80
2008,07,23,11,36,17.70
2008,07,23,11,37,17.70
2008,07,23,11,38,17.80
2008,07,23,11,39,17.90
2008,07,23,11,40,17.90
2008,07,23,11,41,18.00
2008,07,23,11,42,18.10
2008,07,23,11,43,18.20
2008,07,23,11,44,18.30
2008,07,23,11,45,18.30
2008,07,23,11,46,18.20
2008,07,23,11,47,18.20
2008,07,23,11,48,18.20
2008,07,23,11,49,18.40
2008,07,23,11,50,18.50
2008,07,23,11,51,18.50
2008,07,23,11,52,18.60
2008,07,23,11,53,18.70
2008,07,23,11,54,18.80
2008,07,23,11,55,18.80
2008,07,23,11,56,18.70
2008,07,23,11,57,18.70
2008,07,23,11,58,18.70
2008,07,23,11,59,18.70
2008,07,23,12,00,18.70
2008,07,23,12,01,18.80
2008,07,23,12,02,18.80
2008,07,23,12,03,18.70
2008,07,23,12,04,18.60
2008,07,23,12,05,18.50
2008,07,23,12,06,18.40
2008,07,23,12,07,18.30
2008,07,23,12,08,18.40
2008,07,23,12,09,18.40
2008,07,23,12,10,18.50
2008,07,23,12,11,18.60
2008,07,23,12,12,18.60
2008,07,23,12,13,18.70
2008,07,23,12,14,18.60
2008,07,23,12,15,18.70
2008,07,23,12,16,18.70
2008,07,23,12,17,18.70
2008,07,23,12,18,18.70
2008,07,23,12,19,18.60
2008,07,23,12,20,18.50
2008,07,23,12,21,18.50
2008,07,23,12,22,18.40
2008,07,23,12,23,18.50
2008,07,23,12,24,18.50
2008,07,23,12,25,18.60
2008,07,23,12,26,18.70
2008,07,23,12,27,18.70
2008,07,23,12,28,18.60
2008,07,23,12,29,18.60
2008,07,23,12,30,18.60
2008,07,23,12,31,18.60
2008,07,23,12,32,18.70
2008,07,23,12,33,18.80
2008,07,23,12,34,18.90
2008,07,23,12,35,19.00
2008,07,23,12,36,19.10
2008,07,23,12,37,19.20
2008,07,23,12,38,19.20
2008,07,23,12,39,19.30
2008,07,23,12,40,19.40
2008,07,23,12,41,19.30
2008,07,23,12,42,19.30
2008,07,23,12,43,19.30
2008,07,23,12,44,19.30
2008,07,23,12,45,19.20
2008,07,23,12,46,19.10
2008,07,23,12,47,19.10
2008,07,23,12,48,19.10
2008,07,23,12,49,19.10
2008,07,23,12,50,19.10
2008,07,23,12,51,19.20
2008,07,23,12,52,19.30
2008,07,23,12,53,19.30
2008,07,23,12,54,19.40
2008,07,23,12,55,19.40
2008,07,23,12,56,19.30
2008,07,23,12,57,19.20
2008,07,23,12,58,19.00
2008,07,23,12,59,18.90
2008,07,23,13,00,18.80
2008,07,23,13,01,18.80
2008,07,23,13,02,18.80
2008,07,23,13,03,18.90
2008,07,23,13,04,19.00
2008,07,23,13,05,19.10
2008,07,23,13,06,19.20
2008,07,23,13,07,19.30
2008,07,23,13,08,19.30
2008,07,23,13,09,19.40
2008,07,23,13,10,19.40
2008,07,23,13,11,19.50
2008,07,23,13,12,19.50
2008,07,23,13,13,19.60
2008,07,23,13,14,19.70
2008,07,23,13,15,19.90
2008,07,23,13,16,20.00
2008,07,23,13,17,20.10
2008,07,23,13,18,20.10
2008,07,23,13,19,20.10
2008,07,23,13,20,20.00
2008,07,23,13,21,19.90
2008,07,23,13,22,19.90
2008,07,23,13,23,19.90
2008,07,23,13,24,19.90
2008,07,23,13,25,19.90
2008,07,23,13,26,19.80
2008,07,23,13,27,19.70
2008,07,23,13,28,19.70
2008,07,23,13,29,19.60
2008,07,23,13,30,19.60
2008,07,23,13,31,19.40
2008,07,23,13,32,19.30
2008,07,23,13,33,19.30
2008,07,23,13,34,19.30
2008,07,23,13,35,19.40
2008,07,23,13,36,19.40
2008,07,23,13,37,19.50
2008,07,23,13,38,19.50
2008,07,23,13,39,19.50
2008,07,23,13,40,19.60
2008,07,23,13,41,19.60
2008,07,23,13,42,19.70
2008,07,23,13,43,19.80
2008,07,23,13,44,19.80
2008,07,23,13,45,19.70
2008,07,23,13,46,19.70
2008,07,23,13,47,19.70
2008,07,23,13,48,19.80
2008,07,23,13,49,19.80
2008,07,23,13,50,19.90
2008,07,23,13,51,20.00
2008,07,23,13,52,20.10
2008,07,23,13,53,20.20
2008,07,23,13,54,20.20
2008,07,23,13,55,20.20
2008,07,23,13,56,20.30
2008,07,23,13,57,20.20
2008,07,23,13,58,20.20
2008,07,23,13,59,20.20
2008,07,23,14,00,20.20
2008,07,23,14,01,20.20
2008,07,23,14,02,20.30
2008,07,23,14,03,20.30
2008,07,23,14,04,20.30
2008,07,23,14,05,20.30
2008,07,23,14,06,20.20
2008,07,23,14,07,20.30
2008,07,23,14,08,20.20
2008,07,23,14,09,20.20
2008,07,23,14,10,20.20
2008,07,23,14,11,20.20
2008,07,23,14,12,20.20
2008,07,23,14,13,20.20
2008,07,23,14,14,20.30
2008,07,23,14,15,20.40
2008,07,23,14,16,20.50
2008,07,23,14,17,20.50
2008,07,23,14,18,20.40
2008,07,23,14,19,20.40
2008,07,23,14,20,20.40
2008,07,23,14,21,20.40
2008,07,23,14,22,20.50
2008,07,23,14,23,20.60
2008,07,23,14,24,20.60
2008,07,23,14,25,20.60
2008,07,23,14,26,20.70
2008,07,23,14,27,20.80
2008,07,23,14,28,20.80
2008,07,23,14,29,20.90
2008,07,23,14,30,20.80
2008,07,23,14,31,20.70
2008,07,23,14,32,20.60
2008,07,23,14,33,20.60
2008,07,23,14,34,20.50
2008,07,23,14,35,20.50
2008,07,23,14,36,20.50
2008,07,23,14,37,20.50
2008,07,23,14,38,20.50
2008,07,23,14,39,20.50
2008,07,23,14,40,20.40
2008,07,23,14,41,20.40
2008,07,23,14,42,20.40
2008,07,23,14,43,20.40
2008,07,23,14,44,20.40
2008,07,23,14,45,20.50
2008,07,23,14,46,20.60
2008,07,23,14,47,20.60
2008,07,23,14,48,20.70
2008,07,23,14,49,20.80
2008,07,23,14,50,20.80
2008,07,23,14,51,20.70
2008,07,23,14,52,20.70
2008,07,23,14,53,20.70
2008,07,23,14,54,20.70
2008,07,23,14,55,20.70
2008,07,23,14,56,20.70
2008,07,23,14,57,20.70
2008,07,23,14,58,20.80
2008,07,23,14,59,20.90
2008,07,23,15,00,20.90
2008,07,23,15,01,21.00
2008,07,23,15,02,21.00
2008,07,23,15,03,21.00
2008,07,23,15,04,21.00
2008,07,23,15,05,21.00
2008,07,23,15,06,21.00
2008,07,23,15,07,20.90
2008,07,23,15,08,20.90
2008,07,23,15,09,20.90
2008,07,23,15,10,20.90
2008,07,23,15,11,21.00
2008,07,23,15,12,21.00
2008,07,23,15,13,20.90
2008,07,23,15,14,21.00
2008,07,23,15,15,21.00
2008,07,23,15,16,21.00
2008,07,23,15,17,20.90
2008,07,23,15,18,20.80
2008,07,23,15,19,20.80
2008,07,23,15,20,20.70
2008,07,23,15,21,20.70
2008,07,23,15,22,20.60
2008,07,23,15,23,20.60
2008,07,23,15,24,20.60
2008,07,23,15,25,20.50
2008,07,23,15,26,20.50
2008,07,23,15,27,20.50
2008,07,23,15,28,20.50
2008,07,23,15,29,20.50
2008,07,23,15,30,20.60
2008,07,23,15,31,20.60
2008,07,23,15,32,20.50
2008,07,23,15,33,20.50
2008,07,23,15,34,20.50
2008,07,23,15,35,20.40
2008,07,23,15,36,20.30
2008,07,23,15,37,20.30
2008,07,23,15,38,20.20
2008,07,23,15,39,20.20
2008,07,23,15,40,20.20
2008,07,23,15,41,20.10
2008,07,23,15,42,20.10
2008,07,23,15,43,20.20
2008,07,23,15,44,20.20
2008,07,23,15,45,20.30
2008,07,23,15,46,20.40
2008,07,23,15,47,20.50
2008,07,23,15,48,20.70
2008,07,23,15,49,20.70
2008,07,23,15,50,20.80
2008,07,23,15,51,20.90
2008,07,23,15,52,20.90
2008,07,23,15,53,20.90
2008,07,23,15,54,20.90
2008,07,23,15,55,20.90
2008,07,23,15,56,20.90
2008,07,23,15,57,20.90
2008,07,23,15,58,20.90
2008,07,23,15,59,20.80
2008,07,23,16,00,21.00
2008,07,23,16,01,21.10
2008,07,23,16,02,21.20
2008,07,23,16,03,21.30
2008,07,23,16,04,21.30
2008,07,23,16,05,21.30
2008,07,23,16,06,21.30
2008,07,23,16,07,21.30
2008,07,23,16,08,21.30
2008,07,23,16,09,21.20
2008,07,23,16,10,21.10
2008,07,23,16,11,21.10
2008,07,23,16,12,21.10
2008,07,23,16,13,21.10
2008,07,23,16,14,21.10
2008,07,23,16,15,21.10
2008,07,23,16,16,21.10
2008,07,23,16,17,21.20
2008,07,23,16,18,21.20
2008,07,23,16,19,21.20
2008,07,23,16,20,21.20
2008,07,23,16,21,21.20
2008,07,23,16,22,21.20
2008,07,23,16,23,21.20
2008,07,23,16,24,21.10
2008,07,23,16,25,21.10
2008,07,23,16,26,21.00
2008,07,23,16,27,21.00
2008,07,23,16,28,21.00
2008,07,23,16,29,21.00
2008,07,23,16,30,21.10
2008,07,23,16,31,21.20
2008,07,23,16,32,21.30
2008,07,23,16,33,21.40
2008,07,23,16,34,21.40
2008,07,23,16,35,21.50
2008,07,23,16,36,21.60
2008,07,23,16,37,21.70
2008,07,23,16,38,21.80
2008,07,23,16,39,21.80
2008,07,23,16,40,21.80
2008,07,23,16,41,21.80
2008,07,23,16,42,21.80
2008,07,23,16,43,21.80
2008,07,23,16,44,21.70
2008,07,23,16,45,21.70
2008,07,23,16,46,21.70
2008,07,23,16,47,21.60
2008,07,23,16,48,21.60
2008,07,23,16,49,21.60
2008,07,23,16,50,21.60
2008,07,23,16,51,21.70
2008,07,23,16,52,21.70
2008,07,23,16,53,21.70
2008,07,23,16,54,21.70
2008,07,23,16,55,21.60
2008,07,23,16,56,21.60
2008,07,23,16,57,21.60
2008,07,23,16,58,21.60
2008,07,23,16,59,21.70
2008,07,23,17,00,21.80
2008,07,23,17,01,21.90
2008,07,23,17,02,21.90
2008,07,23,17,03,21.90
2008,07,23,17,04,21.70
2008,07,23,17,05,21.60
2008,07,23,17,06,21.60
2008,07,23,17,07,21.60
2008,07,23,17,08,21.50
2008,07,23,17,09,21.40
2008,07,23,17,10,21.50
2008,07,23,17,11,21.60
2008,07,23,17,12,21.60
2008,07,23,17,13,21.60
2008,07,23,17,14,21.50
2008,07,23,17,15,21.60
2008,07,23,17,16,21.60
2008,07,23,17,17,21.60
2008,07,23,17,18,21.60
2008,07,23,17,19,21.70
2008,07,23,17,20,21.70
2008,07,23,17,21,21.80
2008,07,23,17,22,21.90
2008,07,23,17,23,21.90
2008,07,23,17,24,21.90
2008,07,23,17,25,21.90
2008,07,23,17,26,21.80
2008,07,23,17,27,21.70
2008,07,23,17,28,21.60
2008,07,23,17,29,21.40
2008,07,23,17,30,21.30
2008,07,23,17,31,21.20
2008,07,23,17,32,21.10
2008,07,23,17,33,21.10
2008,07,23,17,34,21.10
2008,07,23,17,35,21.00
2008,07,23,17,36,21.00
2008,07,23,17,37,21.00
2008,07,23,17,38,21.00
2008,07,23,17,39,21.00
2008,07,23,17,40,21.00
2008,07,23,17,41,21.10
2008,07,23,17,42,21.20
2008,07,23,17,43,21.30
2008,07,23,17,44,21.30
2008,07,23,17,45,21.40
2008,07,23,17,46,21.50
2008,07,23,17,47,21.40
2008,07,23,17,48,21.40
2008,07,23,17,49,21.30
2008,07,23,17,50,21.30
2008,07,23,17,51,21.30
2008,07,23,17,52,21.30
2008,07,23,17,53,21.30
2008,07,23,17,54,21.30
2008,07,23,17,55,21.30
2008,07,23,17,56,21.30
2008,07,23,17,57,21.30
2008,07,23,17,58,21.30
2008,07,23,17,59,21.30
2008,07,23,18,00,21.30
2008,07,23,18,01,21.40
2008,07,23,18,02,21.40
2008,07,23,18,03,21.40
2008,07,23,18,04,21.50
2008,07,23,18,05,21.40
2008,07,23,18,06,21.40
2008,07,23,18,07,21.40